• En España
  • Lista de países
  • Para 7 días
  • Temperatura del agua
  • Mapa Satelital
  • El tiempo en el mapa
  • Informadores
  • user-avatar
    Iniciar sesión

    Tiempo cada hora Vitebsk

    Hoy, 18 Octubre, Jueves

    Tiempo Temperatura Precipitaciones Viento Presión Humedad
    00:00 +10°C° 0 mm 2 mps 753 mmHg 88%
    01:00 +10°C° 0 mm 2 mps 753 mmHg 89%
    02:00 +9°C° 0 mm 2 mps 753 mmHg 88%
    03:00 +9°C° 0 mm 2 mps 753 mmHg 88%
    04:00 +9°C° 0 mm 2 mps 753 mmHg 89%
    05:00 +8°C° 0 mm 2 mps 752 mmHg 90%
    06:00 +9°C° 0 mm 2 mps 752 mmHg 88%
    07:00 +9°C° 0 mm 2 mps 752 mmHg 87%
    08:00 +10°C° 0 mm 2 mps 752 mmHg 85%
    09:00 +13°C° 0 mm 2 mps 752 mmHg 80%
    10:00 +15°C° 0 mm 2 mps 752 mmHg 74%
    11:00 +16°C° 0 mm 2 mps 752 mmHg 69%
    12:00 +17°C° 0 mm 2 mps 751 mmHg 68%
    13:00 +18°C° 0 mm 3 mps 751 mmHg 66%
    14:00 +19°C° 0 mm 3 mps 751 mmHg 65%
    15:00 +18°C° 0 mm 3 mps 750 mmHg 71%
    16:00 +16°C° 0 mm 2 mps 750 mmHg 78%
    17:00 +15°C° 0 mm 2 mps 749 mmHg 84%
    18:00 +15°C° 0 mm 2 mps 749 mmHg 86%
    19:00 +14°C° 0 mm 2 mps 749 mmHg 87%
    20:00 +13°C° 0 mm 2 mps 749 mmHg 89%
    21:00 +13°C° 0 mm 2 mps 749 mmHg 90%
    22:00 +13°C° 0 mm 2 mps 749 mmHg 91%
    23:00 +12°C° 0 mm 2 mps 748 mmHg 92%

    Mañana, 19 Octubre, Viernes

    Tiempo Temperatura Precipitaciones Viento Presión Humedad
    00:00 +12°C° 0 mm 2 mps 748 mmHg 92%
    01:00 +12°C° 0 mm 2 mps 748 mmHg 93%
    02:00 +12°C° 0 mm 2 mps 748 mmHg 94%
    03:00 +10°C° 0 mm 2 mps 748 mmHg 94%
    04:00 +10°C° 0 mm 2 mps 748 mmHg 95%
    05:00 +11°C° 0 mm 1 mps 747 mmHg 95%
    06:00 +11°C° 0 mm 1 mps 748 mmHg 95%
    07:00 +11°C° 0 mm 1 mps 748 mmHg 95%
    08:00 +11°C° 0 mm 1 mps 748 mmHg 95%
    09:00 +12°C° 0 mm 2 mps 748 mmHg 89%
    10:00 +13°C° 0 mm 2 mps 748 mmHg 82%
    11:00 +14°C° 0 mm 2 mps 748 mmHg 76%
    12:00 +15°C° 0 mm 2 mps 749 mmHg 74%
    13:00 +14°C° 0 mm 3 mps 749 mmHg 72%
    14:00 +14°C° 0 mm 3 mps 749 mmHg 71%
    15:00 +13°C° 0 mm 3 mps 749 mmHg 74%
    16:00 +12°C° 0 mm 3 mps 749 mmHg 78%
    17:00 +11°C° 0 mm 3 mps 749 mmHg 82%
    18:00 +10°C° 0 mm 3 mps 749 mmHg 84%
    19:00 +9°C° 0 mm 2 mps 750 mmHg 86%
    20:00 +8°C° 0 mm 2 mps 750 mmHg 88%
    21:00 +8°C° 0 mm 2 mps 750 mmHg 89%
    22:00 +7°C° 0 mm 2 mps 751 mmHg 91%
    23:00 +6°C° 0 mm 2 mps 751 mmHg 92%

    Pasado mañana, 20 Octubre, Sábado

    Tiempo Temperatura Precipitaciones Viento Presión Humedad
    00:00 +6°C° 0 mm 2 mps 751 mmHg 92%
    01:00 +5°C° 0 mm 2 mps 751 mmHg 92%
    02:00 +5°C° 0 mm 2 mps 751 mmHg 92%
    03:00 +6°C° 0 mm 1 mps 751 mmHg 92%
    04:00 +5°C° 0 mm 1 mps 751 mmHg 92%
    05:00 +5°C° 0 mm 1 mps 751 mmHg 92%
    06:00 +5°C° 0 mm 1 mps 751 mmHg 90%
    07:00 +5°C° 0 mm 1 mps 752 mmHg 88%
    08:00 +6°C° 0 mm 1 mps 752 mmHg 87%
    09:00 +7°C° 0 mm 1 mps 752 mmHg 79%
    10:00 +9°C° 0 mm 1 mps 752 mmHg 72%
    11:00 +10°C° 0 mm 1 mps 752 mmHg 64%
    12:00 +10°C° 0 mm 1 mps 752 mmHg 61%
    13:00 +10°C° 0 mm 2 mps 751 mmHg 59%
    14:00 +10°C° 0 mm 2 mps 751 mmHg 56%
    15:00 +11°C° 0 mm 1 mps 751 mmHg 60%
    16:00 +10°C° 0 mm 1 mps 751 mmHg 63%
    17:00 +9°C° 0 mm 1 mps 750 mmHg 67%
    18:00 +9°C° 0 mm 1 mps 750 mmHg 69%
    19:00 +8°C° 0 mm 1 mps 750 mmHg 71%
    20:00 +7°C° 0 mm 0 mps 750 mmHg 72%
    21:00 +7°C° 0 mm 0 mps 750 mmHg 74%
    22:00 +7°C° 0 mm 0 mps 750 mmHg 75%
    23:00 +6°C° 0 mm 0 mps 749 mmHg 76%

    21 Octubre, Domingo

    Tiempo Temperatura Precipitaciones Viento Presión Humedad
    00:00 +6°C° 0 mm 0 mps 749 mmHg 77%
    01:00 +6°C° 0 mm 0 mps 749 mmHg 78%
    02:00 +6°C° 0 mm 0 mps 749 mmHg 79%
    03:00 +6°C° 0 mm 0 mps 749 mmHg 80%
    04:00 +6°C° 0 mm 0 mps 748 mmHg 81%
    05:00 +6°C° 0 mm 0 mps 748 mmHg 82%
    06:00 +7°C° 0 mm 1 mps 749 mmHg 82%
    07:00 +7°C° 0 mm 1 mps 749 mmHg 82%
    08:00 +7°C° 0 mm 1 mps 749 mmHg 82%
    09:00 +8°C° 0 mm 1 mps 749 mmHg 77%
    10:00 +8°C° 0 mm 2 mps 750 mmHg 72%
    11:00 +9°C° 0 mm 2 mps 750 mmHg 67%
    12:00 +10°C° 0 mm 2 mps 750 mmHg 64%
    13:00 +10°C° 0 mm 2 mps 750 mmHg 62%
    14:00 +10°C° 0 mm 2 mps 750 mmHg 59%
    15:00 +9°C° 0 mm 2 mps 751 mmHg 64%
    16:00 +8°C° 0 mm 2 mps 751 mmHg 69%
    17:00 +8°C° 0 mm 1 mps 751 mmHg 74%
    18:00 +7°C° 0 mm 1 mps 751 mmHg 77%
    19:00 +7°C° 0 mm 1 mps 752 mmHg 79%
    20:00 +6°C° 0 mm 1 mps 752 mmHg 82%
    21:00 +6°C° 0 mm 1 mps 752 mmHg 83%
    22:00 +6°C° 0 mm 1 mps 752 mmHg 85%
    23:00 +4°C° 0 mm 0 mps 753 mmHg 86%

    22 Octubre, Lunes

    Tiempo Temperatura Precipitaciones Viento Presión Humedad
    00:00 +5°C° 0 mm 1 mps 752 mmHg 87%
    01:00 +5°C° 0 mm 1 mps 752 mmHg 88%
    02:00 +5°C° 0 mm 1 mps 752 mmHg 89%
    03:00 +3°C° 0 mm 2 mps 752 mmHg 90%
    04:00 +3°C° 0 mm 2 mps 752 mmHg 90%
    05:00 +3°C° 0 mm 2 mps 752 mmHg 91%
    06:00 +3°C° 0 mm 2 mps 751 mmHg 90%
    07:00 +4°C° 0 mm 2 mps 751 mmHg 88%
    08:00 +3°C° 0 mm 3 mps 751 mmHg 86%
    09:00 +4°C° 0 mm 3 mps 751 mmHg 79%
    10:00 +6°C° 0 mm 4 mps 751 mmHg 72%
    11:00 +8°C° 0 mm 5 mps 750 mmHg 65%
    12:00 +8°C° 0 mm 5 mps 750 mmHg 63%
    13:00 +9°C° 0 mm 5 mps 749 mmHg 60%
    14:00 +9°C° 0 mm 5 mps 748 mmHg 58%
    15:00 +9°C° 0 mm 5 mps 748 mmHg 62%
    16:00 +8°C° 0 mm 5 mps 748 mmHg 67%
    17:00 +7°C° 0 mm 4 mps 747 mmHg 71%
    18:00 +7°C° 0.6 mm 4 mps 747 mmHg 76%
    19:00 +6°C° 0.6 mm 4 mps 747 mmHg 81%
    20:00 +6°C° 0.6 mm 4 mps 747 mmHg 87%
    21:00 +7°C° 0.5 mm 3 mps 747 mmHg 89%
    22:00 +7°C° 0.5 mm 3 mps 747 mmHg 91%
    23:00 +7°C° 0.5 mm 2 mps 747 mmHg 93%

    23 Octubre, Martes

    Tiempo Temperatura Precipitaciones Viento Presión Humedad
    00:00 +6°C° 0.1 mm 2 mps 746 mmHg 92%
    01:00 +6°C° 0.1 mm 2 mps 746 mmHg 91%
    02:00 +5°C° 0.1 mm 2 mps 746 mmHg 90%
    03:00 +5°C° 0 mm 2 mps 746 mmHg 89%
    04:00 +5°C° 0 mm 2 mps 745 mmHg 87%
    05:00 +5°C° 0 mm 1 mps 745 mmHg 85%
    06:00 +5°C° 0 mm 1 mps 745 mmHg 83%
    07:00 +5°C° 0 mm 1 mps 744 mmHg 81%
    08:00 +5°C° 0 mm 1 mps 744 mmHg 79%
    09:00 +6°C° 0 mm 1 mps 744 mmHg 74%
    10:00 +7°C° 0 mm 1 mps 744 mmHg 70%
    11:00 +7°C° 0 mm 1 mps 744 mmHg 65%
    12:00 +8°C° 0 mm 1 mps 744 mmHg 62%
    13:00 +8°C° 0 mm 1 mps 743 mmHg 60%
    14:00 +8°C° 0 mm 1 mps 743 mmHg 58%
    15:00 +7°C° 0 mm 1 mps 743 mmHg 62%
    16:00 +5°C° 0 mm 0 mps 742 mmHg 67%
    17:00 +4°C° 0 mm 0 mps 742 mmHg 71%
    18:00 +4°C° 0 mm 0 mps 742 mmHg 73%
    19:00 +3°C° 0 mm 0 mps 742 mmHg 75%
    20:00 +3°C° 0 mm 0 mps 742 mmHg 77%
    21:00 +2°C° 0 mm 0 mps 741 mmHg 77%
    22:00 +2°C° 0 mm 0 mps 741 mmHg 78%
    23:00 +2°C° 0 mm 0 mps 741 mmHg 79%
    Mostrar más